Weather in Ahtopol

Bulgaria     42°05′51″N   27°56′07″E
temp.,
°C
wind,
m/s
gust,
m/s
humid.,
%
clouds,
%
prec.,
mm/h
press.,
hPa
HPBL,
m
8 may, sat
sat800:00+16ssw356886 0.0 1010102
03:00+18sw395528 0.0 1008260
06:00+16wnw2263100 0.0 100935
09:00+19nw4967100 0.0 1012453
12:00+16nw1384100 0.5 101656
15:00+14n4987100 6.3 1016292
18:00+13nnw5995100 2.7 1018560
21:00+12nne6989100 5.2 1020600
9 may, sun
sun900:00+12nne468086 0.1 1022443
03:00+11nnw36855 0.1 1023415
06:00+11nne377911 0.0 1024559
09:00+13ne56715 0.3 10271067
12:00+14ne555522 0.1 10281510
15:00+14ene55545 0.1 10281214
18:00+13ene45575 0.0 1028922
21:00+11e46675 0.0 1028404
10 may, mon
mon1000:00+10e36700 0.0 1028339
03:00+9ene24730 0.0 1027364
06:00+9ne25735 0.0 1026424
09:00+13ene56560 0.0 10271048
12:00+14ene57530 0.0 10271148
15:00+14ene56550 0.0 10261099
18:00+14ene56620 0.0 1025961
21:00+12ene58645 0.0 1025601
11 may, tue
tue1100:00+12ene57643 0.0 1024545
03:00+11ene36700 0.0 1023403
06:00+10ne35730 0.0 1022412
09:00+14ene56590 0.0 10221027
12:00+15ene45550 0.0 10221043
15:00+15ene44540 0.0 1021943
18:00+14ene45570 0.0 1020810
21:00+11e24700 0.0 1019311
12 may, wed
wed1200:00+9wsw12750 0.0 1018268
03:00+7w22870 0.0 101649
06:00+7w22840 0.0 101547
09:00+13se12630 0.0 1014351
12:00+15ese44550 0.0 1013621
15:00+16ese4554100 0.0 1012583
18:00+15se5663100 0.0 1011486
21:00+12sse4778100 0.0 1010309